Hourly Weather Zd'ar nad Sazavou

Today, 29 July, Thursday

Time Temperature Precipitation Wind Pressure Humidity
00:00 +14°C° 0 mm 3 mps 710 mmHg 93%
01:00 +14°C° 0 mm 2 mps 710 mmHg 92%
02:00 +13°C° 0 mm 2 mps 710 mmHg 93%
03:00 +13°C° 0 mm 2 mps 710 mmHg 93%
04:00 +13°C° 0 mm 1 mps 710 mmHg 94%
05:00 +14°C° 0 mm 2 mps 710 mmHg 91%
06:00 +16°C° 0 mm 2 mps 710 mmHg 88%
07:00 +17°C° 0 mm 3 mps 710 mmHg 85%
08:00 +18°C° 0 mm 3 mps 711 mmHg 77%
09:00 +20°C° 0 mm 4 mps 711 mmHg 70%
10:00 +21°C° 0 mm 4 mps 711 mmHg 62%
11:00 +22°C° 0 mm 4 mps 711 mmHg 59%
12:00 +23°C° 0 mm 4 mps 711 mmHg 56%
13:00 +23°C° 0 mm 5 mps 711 mmHg 53%
14:00 +25°C° 0 mm 4 mps 711 mmHg 52%
15:00 +25°C° 0 mm 4 mps 710 mmHg 52%
16:00 +25°C° 0 mm 4 mps 710 mmHg 51%
17:00 +24°C° 0 mm 3 mps 710 mmHg 58%
18:00 +23°C° 0 mm 2 mps 710 mmHg 65%
19:00 +21°C° 0 mm 1 mps 709 mmHg 72%
20:00 +20°C° 0 mm 1 mps 709 mmHg 74%
21:00 +19°C° 0 mm 1 mps 709 mmHg 76%
22:00 +18°C° 0 mm 1 mps 709 mmHg 78%
23:00 +16°C° 0 mm 1 mps 709 mmHg 78%

Tomorrow, 30 July, Friday

Time Temperature Precipitation Wind Pressure Humidity
00:00 +16°C° 0 mm 1 mps 709 mmHg 77%
01:00 +15°C° 0 mm 1 mps 709 mmHg 77%
02:00 +15°C° 0 mm 1 mps 709 mmHg 77%
03:00 +15°C° 0 mm 1 mps 709 mmHg 77%
04:00 +14°C° 0 mm 0 mps 708 mmHg 77%
05:00 +15°C° 0 mm 0 mps 709 mmHg 73%
06:00 +17°C° 0 mm 0 mps 709 mmHg 69%
07:00 +18°C° 0 mm 0 mps 709 mmHg 66%
08:00 +22°C° 0 mm 1 mps 709 mmHg 62%
09:00 +23°C° 0 mm 1 mps 709 mmHg 59%
10:00 +25°C° 0 mm 1 mps 709 mmHg 56%
11:00 +26°C° 0 mm 2 mps 709 mmHg 53%
12:00 +27°C° 0 mm 2 mps 708 mmHg 50%
13:00 +28°C° 0 mm 3 mps 708 mmHg 47%
14:00 +28°C° 0 mm 3 mps 708 mmHg 47%
15:00 +28°C° 0 mm 2 mps 708 mmHg 48%
16:00 +28°C° 0 mm 2 mps 707 mmHg 48%
17:00 +27°C° 0 mm 2 mps 707 mmHg 55%
18:00 +25°C° 0 mm 1 mps 707 mmHg 62%
19:00 +22°C° 0 mm 0 mps 706 mmHg 69%
20:00 +22°C° 0.4 mm 1 mps 706 mmHg 75%
21:00 +20°C° 0.4 mm 2 mps 706 mmHg 82%
22:00 +18°C° 0.4 mm 2 mps 706 mmHg 88%
23:00 +18°C° 0 mm 3 mps 706 mmHg 87%

Day after tomorrow, 31 July, Saturday

Time Temperature Precipitation Wind Pressure Humidity
00:00 +18°C° 0 mm 3 mps 706 mmHg 87%
01:00 +19°C° 0 mm 4 mps 706 mmHg 86%
02:00 +18°C° 0 mm 3 mps 706 mmHg 88%
03:00 +18°C° 0 mm 3 mps 706 mmHg 90%
04:00 +17°C° 0 mm 2 mps 706 mmHg 92%
05:00 +18°C° 0 mm 3 mps 706 mmHg 90%
06:00 +18°C° 0 mm 3 mps 707 mmHg 88%
07:00 +19°C° 0 mm 3 mps 707 mmHg 86%
08:00 +19°C° 0 mm 4 mps 707 mmHg 78%
09:00 +20°C° 0 mm 5 mps 707 mmHg 70%
10:00 +21°C° 0 mm 5 mps 708 mmHg 61%
11:00 +21°C° 0 mm 5 mps 708 mmHg 60%
12:00 +21°C° 0 mm 4 mps 708 mmHg 59%
13:00 +21°C° 0 mm 4 mps 708 mmHg 58%
14:00 +21°C° 0 mm 4 mps 708 mmHg 56%
15:00 +22°C° 0 mm 4 mps 708 mmHg 54%
16:00 +23°C° 0 mm 5 mps 708 mmHg 52%
17:00 +21°C° 0 mm 4 mps 708 mmHg 59%
18:00 +20°C° 0 mm 3 mps 708 mmHg 66%
19:00 +19°C° 0 mm 2 mps 708 mmHg 73%
20:00 +18°C° 0 mm 2 mps 708 mmHg 77%
21:00 +17°C° 0 mm 2 mps 707 mmHg 81%
22:00 +16°C° 0 mm 2 mps 707 mmHg 85%
23:00 +15°C° 0 mm 1 mps 707 mmHg 84%

1 August, Sunday

Time Temperature Precipitation Wind Pressure Humidity
00:00 +15°C° 0 mm 1 mps 707 mmHg 82%
01:00 +15°C° 0 mm 1 mps 707 mmHg 80%
02:00 +15°C° 0 mm 1 mps 707 mmHg 78%
03:00 +14°C° 0 mm 0 mps 706 mmHg 76%
04:00 +14°C° 0 mm 0 mps 706 mmHg 73%
05:00 +16°C° 0.1 mm 1 mps 706 mmHg 74%
06:00 +16°C° 0.1 mm 1 mps 706 mmHg 74%
07:00 +18°C° 0.1 mm 1 mps 706 mmHg 74%
08:00 +16°C° 0.9 mm 2 mps 706 mmHg 81%
09:00 +15°C° 0.9 mm 2 mps 706 mmHg 87%
10:00 +14°C° 0.9 mm 3 mps 705 mmHg 94%
11:00 +14°C° 1.2 mm 3 mps 705 mmHg 95%
12:00 +13°C° 1.2 mm 3 mps 705 mmHg 96%
13:00 +13°C° 1.2 mm 3 mps 705 mmHg 96%
14:00 +13°C° 0.8 mm 4 mps 705 mmHg 96%
15:00 +13°C° 0.8 mm 4 mps 705 mmHg 96%
16:00 +13°C° 0.8 mm 4 mps 706 mmHg 96%
17:00 +13°C° 0.3 mm 4 mps 706 mmHg 96%
18:00 +13°C° 0.3 mm 4 mps 706 mmHg 96%
19:00 +13°C° 0.3 mm 4 mps 706 mmHg 96%
20:00 +13°C° 0.2 mm 4 mps 707 mmHg 95%
21:00 +13°C° 0.2 mm 4 mps 707 mmHg 94%
22:00 +13°C° 0.2 mm 4 mps 707 mmHg 93%
23:00 +12°C° 0 mm 4 mps 707 mmHg 93%

2 August, Monday

Time Temperature Precipitation Wind Pressure Humidity
00:00 +12°C° 0 mm 4 mps 707 mmHg 94%
01:00 +12°C° 0 mm 4 mps 707 mmHg 94%
02:00 +12°C° 0 mm 4 mps 707 mmHg 94%
03:00 +12°C° 0 mm 4 mps 707 mmHg 93%
04:00 +12°C° 0 mm 4 mps 707 mmHg 93%
05:00 +12°C° 0 mm 4 mps 707 mmHg 90%
06:00 +13°C° 0 mm 4 mps 708 mmHg 88%
07:00 +13°C° 0 mm 4 mps 708 mmHg 85%
08:00 +15°C° 0 mm 5 mps 708 mmHg 78%
09:00 +17°C° 0 mm 5 mps 709 mmHg 70%
10:00 +19°C° 0 mm 5 mps 709 mmHg 62%
11:00 +20°C° 0.1 mm 5 mps 709 mmHg 60%
12:00 +20°C° 0.1 mm 5 mps 709 mmHg 58%
13:00 +20°C° 0.1 mm 5 mps 709 mmHg 56%
14:00 +20°C° 0.2 mm 4 mps 709 mmHg 58%
15:00 +20°C° 0.2 mm 4 mps 709 mmHg 61%
16:00 +20°C° 0.2 mm 4 mps 709 mmHg 63%
17:00 +18°C° 0.5 mm 3 mps 709 mmHg 70%
18:00 +17°C° 0.5 mm 3 mps 709 mmHg 77%
19:00 +16°C° 0.5 mm 2 mps 709 mmHg 84%
20:00 +15°C° 0 mm 2 mps 709 mmHg 86%
21:00 +14°C° 0 mm 2 mps 709 mmHg 88%
22:00 +13°C° 0 mm 2 mps 710 mmHg 91%
23:00 +13°C° 0 mm 2 mps 710 mmHg 91%

3 August, Tuesday

Time Temperature Precipitation Wind Pressure Humidity
00:00 +12°C° 0 mm 1 mps 710 mmHg 91%
01:00 +12°C° 0 mm 1 mps 710 mmHg 92%
02:00 +12°C° 0 mm 1 mps 710 mmHg 92%
03:00 +12°C° 0 mm 1 mps 710 mmHg 92%
04:00 +12°C° 0 mm 1 mps 710 mmHg 92%
05:00 +13°C° 0 mm 1 mps 710 mmHg 88%
06:00 +14°C° 0 mm 1 mps 710 mmHg 84%
07:00 +16°C° 0 mm 1 mps 711 mmHg 80%
08:00 +17°C° 0.1 mm 2 mps 711 mmHg 74%
09:00 +19°C° 0.1 mm 2 mps 711 mmHg 68%
10:00 +20°C° 0.1 mm 3 mps 711 mmHg 63%
11:00 +21°C° 0.3 mm 3 mps 711 mmHg 61%
12:00 +21°C° 0.3 mm 4 mps 711 mmHg 59%
13:00 +22°C° 0.3 mm 4 mps 710 mmHg 57%
14:00 +21°C° 0.4 mm 5 mps 710 mmHg 62%
15:00 +20°C° 0.4 mm 5 mps 710 mmHg 67%
16:00 +19°C° 0.4 mm 5 mps 710 mmHg 72%
17:00 +17°C° 0.2 mm 5 mps 710 mmHg 77%
18:00 +17°C° 0.2 mm 4 mps 710 mmHg 82%
19:00 +16°C° 0.2 mm 3 mps 710 mmHg 86%
20:00 +14°C° 0 mm 3 mps 710 mmHg 88%
21:00 +13°C° 0 mm 2 mps 711 mmHg 90%
22:00 +12°C° 0 mm 2 mps 711 mmHg 92%
23:00 +12°C° 0 mm 2 mps 711 mmHg 92%
Show more

We Need Your Consent

Meteoprog and our Service Providers may store and access personal data such as cookies, device identifiers or other similar technologies on your device and process such data to personalise content and ads, as well as provide social media features and to analyse the traffic.

  • Store and/or access information on your device

    Cookies, device identifiers or other information can be stored or accessed on your device for the purposes indicated above.

  • Personalised ads and content, ad and content measurement, audience insights, and products development

    Ads and content can be personalised based on a profile. More data can be added to better personalise ads and content. Ad and content performance can be measured. Insights about the audience who saw the ads and content can be derived. Such data can be used to develop or improve user’s experience, systems and software.

By clicking ‘I Agree’ you will allow the use of indicated cookies, device identifiers, web beacons or other similar technologies. Your settings can be changed in the browser on your device.

For certain purposes, legitimate interests may be relied on, rather than consent. You can read more about this in our Privacy and Cookie Policy.